This is the latest recevied weather packets stored in our database for station/object PU3WIW-13. If no packets are shown the sender has not sent any weather packets the latest 10 day(s).
| Time | Temp. | Humidity | Pressure | Rain* | Wind** | Luminosity | Snow |
|---|---|---|---|---|---|---|---|
| 1777692946 | 16.67° C | 76% | 1007.7 hPa | 38.35 mm | - | - | - |
| 1777692765 | 16.11° C | 71% | 1008 hPa | 37.08 mm | - | - | - |
| 1777692586 | 16.11° C | 65% | 1007.9 hPa | 36.32 mm | - | - | - |
| 1777692405 | 16.11° C | 58% | 1008.2 hPa | 33.78 mm | - | - | - |
| 1777692225 | 16.11° C | 51% | 1008.4 hPa | 30.23 mm | - | - | - |
| 1777692047 | 16.11° C | 43% | 1008.2 hPa | 26.92 mm | - | - | - |
| 1777691866 | 16.11° C | 37% | 1009.2 hPa | 25.65 mm | - | - | - |
| 1777691686 | 16.67° C | 32% | 1008.5 hPa | 24.38 mm | - | - | - |
| 1777691505 | 16.67° C | 24% | 1008.4 hPa | 22.61 mm | - | - | - |
| 1777691325 | 16.67° C | 20% | 1008.7 hPa | 20.07 mm | - | - | - |
| 1777691146 | 16.67° C | 17% | 1009 hPa | 16.26 mm | - | - | - |
| 1777690965 | 16.67° C | 14% | 1009 hPa | 9.91 mm | - | - | - |
| 1777690784 | 17.22° C | 14% | 1009 hPa | 6.1 mm | - | - | - |
| 1777690614 | 17.22° C | 15% | 1008.2 hPa | 4.32 mm | - | - | - |
| 1777690425 | 17.22° C | 14% | 1007.7 hPa | 3.56 mm | - | - | - |
| 1777690244 | 17.22° C | 13% | 1008 hPa | 3.05 mm | - | - | - |
| 1777690065 | 17.22° C | 11% | 1008.2 hPa | 3.05 mm | - | - | - |
| 1777689884 | 17.78° C | 10% | 1008.1 hPa | 3.05 mm | - | - | - |
| 1777689705 | 17.78° C | 10% | 1008.4 hPa | 2.29 mm | - | - | - |
| 1777689525 | 17.78° C | 10% | 1008.2 hPa | 1.02 mm | - | - | - |
| 1777689344 | 17.78° C | 10% | 1007.7 hPa | 0.51 mm | - | - | - |
| 1777689163 | 18.33° C | 10% | 1008 hPa | 0.51 mm | - | - | - |
| 1777688985 | 18.33° C | 10% | 1008.2 hPa | 0 mm | - | - | - |
| 1777688804 | 18.33° C | 10% | 1008.5 hPa | 0 mm | - | - | - |
| 1777688624 | 18.33° C | 10% | 1008.2 hPa | 0 mm | - | - | - |
* Rain latest hour (hover to see other rain measurements)
** Current wind speed in m/s (hover to see current wind gust speed)